Home   Weather   Neu-Isenburg   Past weeks

Flag for Germany Past Weather in Neu-Isenburg, Hesse, Germany — Yesterday and Last 2 Weeks

Now
73 °F

Passing clouds.


Feels Like: 76 °F
Forecast: 65 / 75 °F
Wind: 6 mph from West

Location: Frankfurt-M-Flughafen Airport

Current Time: Aug 17, 2017 at 9:49:09 pm

Latest Report: Aug 17, 2017 at 9:20 pm


Visibility: N/A

Pressure: 30.04 "Hg

Humidity: 61%

Dew Point: 59 °F

Location of Neu-IsenburgLocation

Past Weather in Neu-Isenburg — Graph

°F

Neu-Isenburg Temperature Yesterday

Maximum temperature yesterday: 79 °F (at 2:50 pm)
Minimum temperature yesterday: 63 °F (at 4:20 am)
Average temperature yesterday: 70 °F

High & Low Weather Summary for the Past Weeks

 TemperatureHumidityPressure
High84 °F (Aug 3, 3:50 pm)100% (Aug 6, 5:50 am)30.21 "Hg (Aug 6, 5:50 am)
Low52 °F (Aug 6, 5:50 am)30% (Aug 7, 3:50 pm)29.83 "Hg (Aug 8, 6:20 am)
Average67 °F74%30.04 "Hg
* Reported Aug 2 8:20 pm — Aug 17 8:50 pm, Neu-Isenburg. Weather by CustomWeather, © 2017

Note: Actual official high and low records may vary slightly from our data, if they occured in-between our weather recording intervals... More about our weather records

Advertising

Neu-Isenburg Weather History for the Previous 24 Hours

Scroll right to see more
 ConditionsComfort  
Time TempWeatherWind HumidityBarometerVisibility
8:50 pm
Thu, Aug 17
73 °FPassing clouds.9 mph61%30.04 "HgN/A
8:20 pm73 °FBroken clouds.7 mph61%30.01 "HgN/A
7:50 pm75 °FPartly sunny.9 mph57%30.04 "HgN/A
7:20 pm75 °FBroken clouds.12 mph57%30.01 "HgN/A
6:50 pm75 °FBroken clouds.12 mph57%30.01 "HgN/A
6:20 pm73 °FPartly sunny.9 mph61%30.04 "HgN/A
5:50 pm77 °FBroken clouds.12 mph51%30.04 "HgN/A
5:20 pm77 °FSprinkles. Partly sunny.10 mph54%30.01 "HgN/A
4:50 pm77 °FSprinkles. Broken clouds.13 mph51%30.01 "HgN/A
4:29 pm79 °FBroken clouds.17 mph48%30.01 "HgN/A
4:20 pm81 °FBroken clouds.18 mph48%30.01 "HgN/A
3:50 pm81 °FBroken clouds.15 mph51%30.01 "HgN/A
2:50 pm81 °FBroken clouds.17 mph51%30.01 "HgN/A
2:20 pm79 °FBroken clouds.14 mph58%30.04 "HgN/A
1:50 pm79 °FBroken clouds.9 mph65%30.04 "HgN/A
1:20 pm77 °FBroken clouds.10 mph65%30.04 "HgN/A
12:50 pm77 °FPartly sunny.8 mph69%30.04 "HgN/A
12:20 pm75 °FPartly sunny.8 mph69%30.07 "HgN/A
11:50 am73 °FBroken clouds.7 mph74%30.07 "HgN/A
11:20 am72 °FBroken clouds.8 mph78%30.07 "HgN/A
10:50 am72 °FBroken clouds.6 mph73%30.07 "HgN/A
10:20 am72 °FPartly sunny.5 mph73%30.07 "HgN/A
9:50 am70 °FPartly sunny.2 mph78%30.07 "HgN/A
9:20 am70 °FPartly sunny.2 mph73%30.07 "HgN/A
8:50 am68 °FPartly sunny.2 mph78%30.07 "HgN/A
8:20 am66 °FPartly sunny.5 mph83%30.07 "HgN/A
7:50 am66 °FPartly sunny.3 mph83%30.07 "HgN/A
7:20 am64 °FFog.2 mph88%30.07 "HgN/A
6:50 am61 °FFog.2 mph100%30.07 "HgN/A
6:20 am61 °FFog.2 mph94%30.07 "HgN/A
5:56 am61 °FFog.3 mph94%30.07 "HgN/A
5:50 am61 °FFog.3 mph94%30.07 "HgN/A
5:20 am61 °FFog.5 mph94%30.07 "HgN/A
4:50 am63 °FFog.5 mph94%30.07 "HgN/A
4:20 am64 °FFog.3 mph88%30.07 "HgN/A
3:50 am63 °FPassing clouds.2 mph94%30.07 "HgN/A
3:20 am66 °FPassing clouds.3 mph83%30.07 "HgN/A
2:50 am66 °FPassing clouds.6 mph83%30.07 "HgN/A
1:50 am66 °FClear.5 mph83%30.09 "Hg10 mi
1:20 am66 °FClear.6 mph83%30.09 "Hg10 mi
12:50 am66 °FPassing clouds.3 mph83%30.09 "HgN/A
12:20 am66 °FClear.6 mph83%30.09 "Hg10 mi
11:50 pm
Wed, Aug 16
66 °FClear.6 mph83%30.12 "Hg10 mi
11:20 pm66 °FClear.6 mph83%30.12 "Hg10 mi
10:50 pm66 °FPassing clouds.3 mph83%30.12 "HgN/A
10:20 pm66 °FClear.5 mph83%30.12 "Hg10 mi
9:50 pm73 °FClear.6 mph61%30.12 "Hg10 mi
9:20 pm72 °FClear.7 mph65%30.12 "Hg10 mi
Weather by CustomWeather, © 2017

See weather overviewHow to use our weather pages